Terminal Aerodrome Forecast
Issued by NWS Charleston, WV

Current Version | Previous Version | Graphics & Text | Print | Product List | Glossary On
Versions: 1 2 3 4 5 6 7 8 9 10 11 12 13 14 15 16 17 18 19 20 21 22 23 24 25
000
FTUS41 KRLX 170500
TAFEKN
TAF
KEKN 170521Z 1706/1806 00000KT 4SM BR BKN005 BKN040
      TEMPO 1707/1710 2SM BR BKN005
     FM171000 00000KT 1/4SM FG VV001
     FM171300 00000KT 2SM BR SCT001
     FM171400 00000KT P6SM FEW040
     FM172000 31004KT P6SM SCT040=

USA.gov is the U.S. government's official web portal to all federal, state and local government web resources and services.